Location: Aalen
(48.8330°N, 10.1000°E)
Time: 11:52:10
(UTC+02:00)

S-56A Canister/Altair - Pass Details

Date: 01 August 2021
Orbit: 632 x 2500 km, 38.9° (Epoch: 21 September)

Event Time Altitude Azimuth Distance (km) Brightness Sun altitude
Rises 17:05:26 0° 242° (WSW) 5,621 12.9 36.2°
Reaches altitude 10° 17:08:57 10° 238° (WSW) 4,797 12.8 35.7°
Maximum altitude 17:22:31 54° 167° (SSE) 2,888 10.9 33.5°
Drops below altitude 10° 17:36:32 10° 97° (E) 4,952 11.2 31.2°
Sets 17:40:14 0° 93° (E) 5,809 11.5 30.6°
